Location: Passo di Treia
(43.2833°N, 13.3333°E)
Time: 11:51:16
(UTC+00:00)

SL-16 R/B - Pass Details

Date: 09 December 2019
Orbit: 840 x 849 km, 71.0° (Epoch: 26 January)

Event Time Altitude Azimuth Distance (km) Brightness Sun altitude
Rises 17:33:25 0° 200° (SSW) 3,389 5.8 -21.5°
Reaches altitude 10° 17:35:50 10° 200° (SSW) 2,460 5.0 -21.9°
Maximum altitude 17:41:30 83° 113° (ESE) 858 2.1 -22.9°
Enters shadow 17:43:40 40° 29° (NNE) 1,236 2.7 -23.3°
